Weather History for Starkville, MS

Change the Weather History Date:

Monday, May 13, 2013

  Actual Average Record
Temperature  
Mean Temperature 56 °F -  
Max Temperature 73 °F 80 °F 86 °F (2014)
Min Temperature 39 °F 59 °F 39 °F (2013)
Degree Days  
Heating Degree Days 9    
Growing Degree Days 6 (Base 50)    
Moisture  
Dew Point 44 °F    
Average Humidity 70    
Maximum Humidity 100    
Minimum Humidity 30    
Precipitation  
Precipitation 0.00 in - - ()
Sea Level Pressure  
Sea Level Pressure 30.23 in    
Wind  
Wind Speed 1 mph (SE)    
Max Wind Speed 6 mph    
Max Gust Speed -    
Visibility 10 miles    
Events      
Averages and records for this station are not official NWS values.
T = Trace of Precipitation, MM = Missing Value Source: NWS Daily Summary

Daily Weather History Graph

Daily Weather History Graph

Search for Another Location

Airport:

Trip Planner

Search our weather history database for the weather conditions in past years. The results will help you decide how hot, cold, wet, or windy it might be!

Date:

Astronomy

May. 13, 2013 Rise Set
Actual Time 5:56 AM CDT 7:47 PM CDT
Civil Twilight 5:29 AM CDT 8:14 PM CDT
Nautical Twilight 4:56 AM CDT 8:47 PM CDT
Astronomical Twilight 4:21 AM CDT 9:23 PM CDT
Moon 8:43 AM CDT (5/13) 10:56 PM CDT (5/13)
Length of Visible Light 14h 45m
Length of Day
13h 51m
Waxing Crescent, 12% of the Moon is Illuminated
May 13
Waxing Crescent
May 17
First Quarter
May 24
Full
May 31
Last Quarter
Jun 8
New

Hourly Weather History & Observations

Time (CDT) Temp. Dew Point Humidity Pressure Visibility Wind Dir Wind Speed Gust Speed Precip Events Conditions
12:35 AM 46.4 °F 44.6 °F 93% 30.20 in 10.0 mi Calm Calm - N/A   Clear
12:55 AM 46.4 °F 42.8 °F 87% 30.19 in 10.0 mi Calm Calm - N/A   Clear
1:15 AM 44.6 °F 42.8 °F 93% 30.19 in 10.0 mi Calm Calm - N/A   Clear
1:35 AM 44.6 °F 42.8 °F 93% 30.19 in 10.0 mi Calm Calm - N/A   Clear
1:55 AM 42.8 °F 42.8 °F 100% 30.19 in 10.0 mi Calm Calm - N/A   Clear
2:15 AM 42.8 °F 42.8 °F 100% 30.19 in 10.0 mi Calm Calm - N/A   Clear
2:35 AM 42.8 °F 41.0 °F 93% 30.19 in 10.0 mi Calm Calm - N/A   Clear
2:55 AM 41.0 °F 41.0 °F 100% 30.19 in 10.0 mi Calm Calm - N/A   Clear
3:15 AM 41.0 °F 41.0 °F 100% 30.20 in 10.0 mi Calm Calm - N/A   Clear
3:35 AM 41.0 °F 41.0 °F 100% 30.19 in 10.0 mi Calm Calm - N/A   Clear
3:55 AM 41.0 °F 41.0 °F 100% 30.20 in 10.0 mi Calm Calm - N/A   Clear
4:15 AM 41.0 °F 39.2 °F 93% 30.20 in 10.0 mi Calm Calm - N/A   Clear
4:35 AM 41.0 °F 39.2 °F 93% 30.21 in 10.0 mi Calm Calm - N/A   Clear
4:55 AM 39.2 °F 39.2 °F 100% 30.22 in 10.0 mi Calm Calm - N/A   Clear
5:15 AM 41.0 °F 39.2 °F 93% 30.22 in 10.0 mi Calm Calm - N/A   Clear
5:35 AM 39.2 °F 39.2 °F 100% 30.23 in 10.0 mi Calm Calm - N/A   Clear
5:55 AM 39.2 °F 37.4 °F 93% 30.24 in 10.0 mi Calm Calm - N/A   Clear
6:15 AM 39.2 °F 39.2 °F 100% 30.25 in 10.0 mi Calm Calm - N/A   Clear
6:35 AM 41.0 °F 41.0 °F 100% 30.25 in 10.0 mi Calm Calm - N/A   Clear
6:55 AM 42.8 °F 41.0 °F 93% 30.26 in 10.0 mi Calm Calm - N/A   Clear
7:15 AM 44.6 °F 42.8 °F 93% 30.27 in 10.0 mi Calm Calm - N/A   Clear
7:35 AM 48.2 °F 44.6 °F 87% 30.27 in 10.0 mi Calm Calm - N/A   Clear
7:55 AM 51.8 °F 46.4 °F 82% 30.27 in 10.0 mi Calm Calm - N/A   Clear
8:15 AM 53.6 °F 46.4 °F 77% 30.28 in 10.0 mi Calm Calm - N/A   Clear
8:35 AM 55.4 °F 44.6 °F 67% 30.29 in 10.0 mi Calm Calm - N/A   Clear
8:55 AM 59.0 °F 42.8 °F 55% 30.30 in 10.0 mi SE 3.5 mph - N/A   Clear
9:15 AM 60.8 °F 44.6 °F 55% 30.30 in 10.0 mi Calm Calm - N/A   Clear
9:35 AM 60.8 °F 42.8 °F 52% 30.30 in 10.0 mi East 4.6 mph - N/A   Clear
9:55 AM 62.6 °F 41.0 °F 45% 30.30 in 10.0 mi ESE 4.6 mph - N/A   Clear
10:15 AM 62.6 °F 41.0 °F 45% 30.30 in 10.0 mi East 3.5 mph - N/A   Clear
10:35 AM 64.4 °F 41.0 °F 42% 30.30 in 10.0 mi East 4.6 mph - N/A   Clear
10:55 AM 64.4 °F 37.4 °F 37% 30.30 in 10.0 mi SSE 3.5 mph - N/A   Clear
11:15 AM 66.2 °F 37.4 °F 35% 30.31 in 10.0 mi Calm Calm - N/A   Clear
11:35 AM 66.2 °F 37.4 °F 35% 30.31 in 10.0 mi West 4.6 mph - N/A   Clear
11:55 AM 68.0 °F 39.2 °F 35% 30.30 in 10.0 mi Calm Calm - N/A   Clear
12:15 PM 68.0 °F 35.6 °F 30% 30.30 in 10.0 mi Calm Calm - N/A   Clear
12:35 PM 68.0 °F 37.4 °F 33% 30.29 in 10.0 mi Calm Calm - N/A   Clear
12:55 PM 69.8 °F 41.0 °F 35% 30.28 in 10.0 mi SE 3.5 mph - N/A   Clear
1:15 PM 69.8 °F 37.4 °F 31% 30.28 in 10.0 mi Calm Calm - N/A   Clear
1:35 PM 69.8 °F 39.2 °F 33% 30.27 in 10.0 mi Calm Calm - N/A   Clear
1:55 PM 71.6 °F 41.0 °F 33% 30.26 in 10.0 mi Calm Calm - N/A   Clear
2:15 PM 71.6 °F 41.0 °F 33% 30.25 in 10.0 mi Calm Calm - N/A   Clear
2:35 PM 71.6 °F 41.0 °F 33% 30.25 in 10.0 mi Calm Calm - N/A   Clear
3:35 PM 73.4 °F 41.0 °F 31% 30.22 in 10.0 mi NNE 3.5 mph - N/A   Clear
3:55 PM 73.4 °F 42.8 °F 33% 30.21 in 10.0 mi SW 4.6 mph - N/A   Clear
4:15 PM 73.4 °F 41.0 °F 31% 30.21 in 10.0 mi Calm Calm - N/A   Clear
4:35 PM 73.4 °F 42.8 °F 33% 30.20 in 10.0 mi WSW 5.8 mph - N/A   Clear
4:55 PM 73.4 °F 44.6 °F 36% 30.20 in 10.0 mi SSW 3.5 mph - N/A   Clear
5:15 PM 73.4 °F 44.6 °F 36% 30.19 in 10.0 mi Calm Calm - N/A   Clear
5:35 PM 73.4 °F 42.8 °F 33% 30.19 in 10.0 mi Calm Calm - N/A   Clear
5:55 PM 73.4 °F 44.6 °F 36% 30.18 in 10.0 mi Calm Calm - N/A   Clear
6:35 PM 73.4 °F 46.4 °F 38% 30.17 in 10.0 mi Calm Calm - N/A   Clear
7:15 PM 68.0 °F 55.4 °F 64% 30.17 in 10.0 mi Calm Calm - N/A   Clear
7:35 PM 62.6 °F 55.4 °F 77% 30.17 in 10.0 mi Calm Calm - N/A   Clear
7:55 PM 62.6 °F 55.4 °F 77% 30.17 in 10.0 mi Calm Calm - N/A   Clear
8:15 PM 59.0 °F 55.4 °F 88% 30.17 in 10.0 mi Calm Calm - N/A   Clear
8:35 PM 59.0 °F 55.4 °F 88% 30.18 in 10.0 mi Calm Calm - N/A   Clear
8:55 PM 59.0 °F 53.6 °F 82% 30.19 in 10.0 mi Calm Calm - N/A   Clear
9:15 PM 55.4 °F 53.6 °F 94% 30.19 in 10.0 mi Calm Calm - N/A   Clear
9:35 PM 55.4 °F 53.6 °F 94% 30.20 in 10.0 mi Calm Calm - N/A   Clear
9:55 PM 55.4 °F 53.6 °F 94% 30.21 in 10.0 mi Calm Calm - N/A   Clear
10:15 PM 55.4 °F 53.6 °F 94% 30.21 in 10.0 mi Calm Calm - N/A   Clear
10:35 PM 53.6 °F 51.8 °F 94% 30.21 in 10.0 mi Calm Calm - N/A   Clear
10:55 PM 53.6 °F 51.8 °F 94% 30.21 in 10.0 mi Calm Calm - N/A   Clear
11:15 PM 53.6 °F 53.6 °F 100% 30.21 in 10.0 mi Calm Calm - N/A   Clear
11:35 PM 53.6 °F 51.8 °F 94% 30.21 in 10.0 mi Calm Calm - N/A   Clear
11:55 PM 51.8 °F 51.8 °F 100% 30.21 in 10.0 mi Calm Calm - N/A   Clear